Change the Weather History Date:

Wednesday, December 5, 2012

  Actual Average Record
Temperature  
Mean Temperature 60 °F -  
Max Temperature 70 °F 64 °F 81 °F (2001)
Min Temperature 51 °F 47 °F 28 °F (2006)
Degree Days  
Heating Degree Days 4    
Growing Degree Days 10 (Base 50)    
Moisture  
Dew Point 57 °F    
Average Humidity 94    
Maximum Humidity 100    
Minimum Humidity 71    
Precipitation  
Precipitation 0.00 in - - ()
Sea Level Pressure  
Sea Level Pressure 30.11 in    
Wind  
Wind Speed 2 mph (NNW)    
Max Wind Speed 10 mph    
Max Gust Speed -    
Visibility 4 miles    
Events Fog    
Averages and records for this station are not official NWS values.
T = Trace of Precipitation, MM = Missing Value Source: NWS Daily Summary

Daily Weather History Graph

Daily Weather History Graph

Search for Another Location

Airport or City:

Trip Planner

Search our weather history database for the weather conditions in past years. The results will help you decide how hot, cold, wet, or windy it might be!

Date:

Astronomy

Dec. 05, 2012 Rise Set
Actual Time 7:01 AM CST 5:23 PM CST
Civil Twilight 6:35 AM CST 5:49 PM CST
Nautical Twilight 6:06 AM CST 6:19 PM CST
Astronomical Twilight 5:37 AM CST 6:47 PM CST
Moon 11:50 PM CST (12/5) 11:46 AM CST (12/5)
Length of Visible Light 11h 13m
Length of Day
10h 22m
Waning Gibbous, 59% of the Moon is Illuminated
Dec 5
Waning Gibbous
Dec 6
Last Quarter
Dec 13
New
Dec 19
First Quarter
Dec 28
Full

Hourly Weather History & Observations

Time (CST) Temp. Dew Point Humidity Pressure Visibility Wind Dir Wind Speed Gust Speed Precip Events Conditions
12:15 AM 60.8 °F 59.0 °F 94% 30.14 in 1.2 mi Calm Calm - N/A   Overcast
12:25 AM 60.8 °F 59.0 °F 94% 30.14 in 3.0 mi Calm Calm - N/A   Overcast
12:41 AM 59.0 °F 57.2 °F 94% 30.13 in 4.0 mi Calm Calm - N/A   Mostly Cloudy
12:53 AM 59.0 °F 59.0 °F 100% 30.14 in 3.0 mi West 3.5 mph - N/A   Mostly Cloudy
1:04 AM 60.8 °F 59.0 °F 94% 30.14 in 6.0 mi WNW 3.5 mph - N/A   Partly Cloudy
1:32 AM 60.8 °F 60.8 °F 100% 30.13 in 2.0 mi NW 3.5 mph - N/A   Mostly Cloudy
1:36 AM 60.8 °F 59.0 °F 94% 30.13 in 1.0 mi NW 3.5 mph - N/A   Mist
1:43 AM 60.8 °F 60.8 °F 100% 30.14 in 0.5 mi Calm Calm - N/A Fog Fog
1:53 AM 59.0 °F 59.0 °F 100% 30.14 in 0.2 mi Calm Calm - N/A Fog Fog
2:11 AM 59.0 °F 59.0 °F 100% 30.14 in 0.8 mi Calm Calm - N/A   Mist
2:53 AM 57.9 °F 57.9 °F 100% 30.13 in 0.5 mi Calm Calm - N/A Fog Fog
3:11 AM 57.2 °F 57.2 °F 100% 30.13 in 0.2 mi Calm Calm - N/A Fog Fog
3:35 AM 57.2 °F 57.2 °F 100% 30.13 in 0.2 mi Calm Calm - N/A Fog Fog
3:51 AM 59.0 °F 59.0 °F 100% 30.12 in 0.8 mi Calm Calm - N/A   Mist
3:53 AM 59.0 °F 59.0 °F 100% 30.12 in 0.8 mi Calm Calm - N/A   Mist
4:09 AM 60.8 °F 60.8 °F 100% 30.12 in 2.0 mi Calm Calm - N/A   Overcast
4:17 AM 60.8 °F 60.8 °F 100% 30.12 in 4.0 mi Calm Calm - N/A   Overcast
4:25 AM 59.0 °F 59.0 °F 100% 30.12 in 1.8 mi Calm Calm - N/A   Overcast
4:34 AM 60.8 °F 60.8 °F 100% 30.12 in 0.2 mi Calm Calm - N/A Fog Fog
4:41 AM 60.8 °F 60.8 °F 100% 30.12 in 0.2 mi NNW 3.5 mph - N/A Fog Fog
4:49 AM 60.8 °F 60.8 °F 100% 30.12 in 0.2 mi NNW 4.6 mph - N/A Fog Fog
4:53 AM 61.0 °F 60.1 °F 97% 30.12 in 0.2 mi NNW 3.5 mph - N/A Fog Fog
5:32 AM 60.8 °F 60.8 °F 100% 30.12 in 1.0 mi NNW 3.5 mph - N/A   Overcast
5:36 AM 60.8 °F 60.8 °F 100% 30.12 in 3.0 mi NNW 4.6 mph - N/A   Overcast
5:53 AM 60.1 °F 59.0 °F 96% 30.14 in 9.0 mi NNW 5.8 mph - N/A   Overcast
6:18 AM 59.0 °F 57.2 °F 94% 30.15 in 10.0 mi NNW 5.8 mph - N/A   Overcast
6:53 AM 59.0 °F 55.9 °F 90% 30.16 in 10.0 mi North 5.8 mph - N/A   Overcast
8:51 AM 57.2 °F 53.6 °F 88% 30.19 in 10.0 mi North 8.1 mph - N/A   Overcast
8:53 AM 57.9 °F 54.0 °F 87% 30.19 in 10.0 mi North 9.2 mph - N/A   Overcast
9:13 AM 57.2 °F 53.6 °F 88% 30.19 in 10.0 mi North 8.1 mph - N/A   Overcast
9:53 AM 62.1 °F 55.9 °F 80% 30.18 in 10.0 mi NNE 4.6 mph - N/A   Mostly Cloudy
10:01 AM 62.6 °F 57.2 °F 82% 30.18 in 10.0 mi Variable 3.5 mph - N/A   Scattered Clouds
10:53 AM 66.0 °F 59.0 °F 78% 30.16 in 9.0 mi Variable 3.5 mph - N/A   Clear
11:53 AM 70.0 °F 60.1 °F 71% 30.14 in 10.0 mi NNE 8.1 mph - N/A   Scattered Clouds
12:06 PM 68.0 °F 60.8 °F 78% 30.13 in 10.0 mi NNW 6.9 mph - N/A   Mostly Cloudy
12:50 PM 64.4 °F 59.0 °F 83% 30.12 in 8.0 mi NNW 8.1 mph - N/A   Overcast
12:53 PM 64.0 °F 59.0 °F 84% 30.12 in 8.0 mi NNW 6.9 mph - N/A   Overcast
1:53 PM 64.9 °F 59.0 °F 81% 30.09 in 8.0 mi North 10.4 mph - N/A   Overcast
2:53 PM 64.0 °F 59.0 °F 84% 30.09 in 8.0 mi North 9.2 mph - N/A   Overcast
3:53 PM 64.0 °F 57.9 °F 80% 30.08 in 9.0 mi North 6.9 mph - N/A   Overcast
4:53 PM 64.0 °F 57.9 °F 80% 30.08 in 10.0 mi NNW 3.5 mph - N/A   Overcast
5:53 PM 63.0 °F 57.9 °F 84% 30.08 in 10.0 mi Calm Calm - N/A   Overcast
6:21 PM 60.8 °F 57.2 °F 88% 30.08 in 10.0 mi Calm Calm - N/A   Partly Cloudy
6:53 PM 57.9 °F 57.0 °F 97% 30.08 in 8.0 mi Calm Calm - N/A   Clear
7:53 PM 55.9 °F 54.0 °F 93% 30.09 in 5.0 mi Calm Calm - N/A   Clear
8:42 PM 55.4 °F 53.6 °F 94% 30.08 in 1.5 mi Calm Calm - N/A   Clear
8:51 PM 55.4 °F 53.6 °F 94% 30.08 in 0.5 mi Calm Calm - N/A Fog Fog
8:53 PM 55.0 °F 54.0 °F 96% 30.08 in 0.8 mi Calm Calm - N/A   Clear
8:57 PM 53.6 °F 53.6 °F 100% 30.08 in 2.0 mi Calm Calm - N/A   Clear
9:04 PM 53.6 °F 53.6 °F 100% 30.08 in 6.0 mi Calm Calm - N/A   Clear
9:21 PM 55.4 °F 53.6 °F 94% 30.07 in 1.5 mi Calm Calm - N/A   Partly Cloudy
9:24 PM 55.4 °F 53.6 °F 94% 30.07 in 0.8 mi Calm Calm - N/A   Mist
9:35 PM 53.6 °F 53.6 °F 100% 30.07 in 1.2 mi Calm Calm - N/A   Scattered Clouds
9:38 PM 53.6 °F 53.6 °F 100% 30.07 in 3.0 mi Calm Calm - N/A   Scattered Clouds
9:45 PM 51.8 °F 51.8 °F 100% 30.07 in 4.0 mi Calm Calm - N/A   Mostly Cloudy
9:53 PM 53.1 °F 52.0 °F 96% 30.07 in 5.0 mi Calm Calm - N/A   Scattered Clouds
10:01 PM 53.6 °F 51.8 °F 94% 30.07 in 4.0 mi Calm Calm - N/A   Mostly Cloudy
10:04 PM 53.6 °F 51.8 °F 94% 30.07 in 1.2 mi Calm Calm - N/A   Mostly Cloudy
10:13 PM 51.8 °F 51.8 °F 100% 30.06 in 0.5 mi Calm Calm - N/A Fog Fog
10:33 PM 51.8 °F 51.8 °F 100% 30.06 in 0.2 mi Calm Calm - N/A Fog Fog
10:53 PM 51.1 °F 50.0 °F 96% 30.05 in 0.2 mi Calm Calm - N/A Fog Fog
11:17 PM 51.8 °F 50.0 °F 94% 30.05 in 0.5 mi Calm Calm - N/A Fog Fog
11:36 PM 51.8 °F 50.0 °F 94% 30.04 in 0.5 mi NE 3.5 mph - N/A Fog Fog
11:44 PM 51.8 °F 51.8 °F 100% 30.04 in 0.2 mi Calm Calm - N/A Fog Fog
11:53 PM 51.1 °F 51.1 °F 100% 30.04 in 0.5 mi Calm Calm - N/A Fog Fog